This is the latest recevied weather packets stored in our database for station/object KE0WPC. If no packets are shown the sender has not sent any weather packets the latest 1 day(s).
| Time | Temp. | Humidity | Pressure | Rain* | Wind** | Luminosity | Snow |
|---|---|---|---|---|---|---|---|
| 1778114934 | 8.33° C | 40% | 1015.1 hPa | - | - | - | - |
| 1778114631 | 8.89° C | 39% | 1015.1 hPa | - | - | - | - |
| 1778114328 | 8.89° C | 39% | 1015.4 hPa | - | - | - | - |
| 1778113415 | 9.44° C | 38% | 1015.4 hPa | - | - | - | - |
| 1778112809 | 9.44° C | 38% | 1015.4 hPa | - | - | - | - |
| 1778111898 | 10° C | 38% | 1015.4 hPa | - | - | - | - |
| 1778109465 | 10.56° C | 38% | 1015.8 hPa | - | - | - | - |
| 1778108855 | 10.56° C | 38% | 1015.8 hPa | - | - | - | - |
| 1778108248 | 11.11° C | 38% | 1015.8 hPa | - | - | - | - |
| 1778107339 | 11.11° C | 38% | 1015.8 hPa | - | - | - | - |
| 1778105821 | 11.11° C | 38% | 1015.8 hPa | - | - | - | - |
| 1778105519 | 11.11° C | 38% | 1016.1 hPa | - | - | - | - |
| 1778104000 | 10.56° C | 40% | 1016.1 hPa | - | - | - | - |
| 1778103396 | 10° C | 40% | 1016.1 hPa | - | - | - | - |
| 1778102790 | 10° C | 41% | 1016.1 hPa | - | - | - | - |
| 1778102485 | 10° C | 41% | 1015.8 hPa | - | - | - | - |
| 1778102181 | 10° C | 40% | 1016.5 hPa | - | - | - | - |
| 1778101878 | 10° C | 40% | 1016.5 hPa | - | - | - | - |
| 1778096724 | 9.44° C | 44% | 1017.6 hPa | - | - | - | - |
| 1778096421 | 9.44° C | 44% | 1017.2 hPa | - | - | - | - |
| 1778095512 | 8.89° C | 44% | 1017.2 hPa | - | - | - | - |
| 1778095208 | 8.89° C | 44% | 1017.6 hPa | - | - | - | - |
| 1778094905 | 9.44° C | 44% | 1017.6 hPa | - | - | - | - |
| 1778092175 | 8.33° C | 46% | 1017.6 hPa | - | - | - | - |
| 1778090964 | 7.78° C | 47% | 1017.9 hPa | - | - | - | - |
* Rain since midnight (hover to see other rain measurements)
** Current wind speed in m/s (hover to see current wind gust speed)